Weather in Neiafu

Tonga     18°39′01″S   173°58′57″W
temp.,
°C
wind,
m/s
gust,
m/s
humid.,
%
clouds,
%
prec.,
mm/h
press.,
hPa
HPBL,
m
19 january, tue
tue1901:00+28ene568198 0.1 1013601
04:00+27ene4577100 0.0 1012741
07:00+28ene447698 0.0 1012812
10:00+28ene457970 0.0 1013746
13:00+28ne447582 0.0 1011832
16:00+28ene237474 0.1 1011675
19:00+28ene337586 0.6 1011719
22:00+28ene347891 0.1 1012540
20 january, wed
wed2001:00+28ene337989 2.6 1012341
04:00+27ene337739 1.1 1011486
07:00+28ne347770 1.6 1011603
10:00+28ne457795 0.0 1012655
13:00+28nne337473 0.0 1011830
16:00+28nne3473100 0.0 1009850
19:00+28nne3475100 0.0 1010812
22:00+28nne457795 1.3 1011558
21 january, thu
thu2101:00+28nne457992 1.5 1010634
04:00+27nne558099 0.6 1009617
07:00+28nne567883 2.1 1010742
10:00+28nne6778100 0.9 1011729
13:00+28nne6679100 1.5 1010757
16:00+28n668040 0.0 1009770
19:00+28nne568142 0.2 1009711
22:00+28nne568111 0.6 1011680
22 january, fri
fri2201:00+28nne778056 6.4 1010436
04:00+28nne678099 1.6 1009486
07:00+28nne6780100 2.2 1010628
10:00+28nne6780100 0.9 1011591
13:00+28nne6681100 1.3 1010662
16:00+28n558095 0.0 1009586
19:00+28n337997 1.7 1011305
22:00+28n3477100 1.2 1012478
23 january, sat
sat2301:00+28nne2275100 1.6 1012385
04:00+28ne3477100 0.0 1010472
07:00+28nne5678100 2.7 1011467
10:00+28nne567984 0.3 1011556
13:00+28nne557967 0.4 1010718
16:00+28nne447698 0.7 1009793
19:00+28nne337499 0.8 1010780
22:00+28nne3375100 0.0 1012553